Погода в Навохоа

Мексика     27°04′22″N   109°26′32″W
темп.,
°C
ветер,
м/с
пор.,
м/с
влажн.,
%
обл.,
%
осадки,
мм/ч
давл.,
гПа
погр.,
м
28 мая, сб
сб2823:00+28ссз231277 0.0 100934
02:00+27ссз221418 0.0 100812
05:00+27с231276 0.0 100917
08:00+32с3495 0.0 1009307
11:00+40ссз4440 0.0 10081296
14:00+43зсз6750 0.0 10052578
17:00+41зсз8960 0.0 10031842
20:00+34зсз510110 0.0 1005258
29 мая, вс
вс2923:00+29сз36160 0.0 1006123
02:00+27сз33200 0.0 100536
05:00+25сз11270 0.0 100612
08:00+31ююв44200 0.0 1007468
11:00+36ююз56160 0.0 10061522
14:00+38ююз76130 0.0 10041687
17:00+36ююз65150 0.0 10031228
20:00+28ююз34400 0.0 100481
30 мая, пн
пн3023:00+25ю12590 0.0 100617
02:00+24ю22640 0.0 100529
05:00+23юв37610 0.0 1005203
08:00+27ююв79571 0.0 1007814
11:00+33ю66340 0.0 10061226
14:00+36юз65250 0.0 10041462
17:00+34юз54260 0.0 10031092
20:00+27юз35380 0.0 1005139
31 мая, вт
вт3123:00+24зюз11580 0.0 100514
02:00+23зсз11620 0.0 100411
05:00+22сз11610 0.0 100511
08:00+28ссз11401 0.0 1006389
11:00+35ююз22205 0.0 10051215
14:00+38юз64155 0.0 10031673
17:00+35з65200 0.0 1003916
20:00+28зюз33330 0.0 100568
1 июня, ср
ср123:00+26зсз11381 0.0 100611
02:00+25зсз33425 0.0 100542
05:00+23зюз114452 0.0 100611
08:00+29ююз11291 0.0 1007409
11:00+35ю54200 0.0 10071281
14:00+37ююз64180 0.0 10051415
17:00+34юз53190 0.0 10041173
20:00+29ююз34355 0.0 100566